TITAN 3C TRANSTAGE DEB, 33511

Orbit data source: Space-Track

TITAN 3C TRANSTAGE DEB, 33511 is space debris in GEO originally from a launch on Thu, 26 Sep 1968 UTC launched from the Air Force Eastern Test Range (AFETR). Debris objects in space refer to the collection of defunct objects orbiting the Earth. Examples of debris include non-operational satellites, rocket bodies, and fragments generated from explosions, collisions, or faulty payload assembly.

Not visible in the next 10 days
Identifier
33511, 1968-081M
Orbit
GEO
Country
Flag of USUS
Related business
Manufacturer
Unknown
Mission
Spacecraft
Bus & Motor
Unknown
Mass
Unknown
Launch date (UTC)
1968-09-26 (57 years ago)
Launch vehicle
Unknown
Launch site
Air Force Eastern Test Range (AFETR)
Object type
Payload
Rocket body
Debris
Shape & HBR
Unknown shape, 1.1 m
Radar Cross Section
Medium (>0.1 m² and <1 m²)

Expand to show TLE details & history
Last TLE update: 17 hours ago

TLE from 17 hours ago
0 TITAN 3C TRANSTAGE DEB
1 33511U 68081M   25347.64879712 -.00000292  00000-0  00000-0 0  9995
2 33511   1.4387  27.2219 0135323 302.2699  71.1174  1.00782832 65552
Epoch: 2025-12-13T15:34Z
TLE epoch observation values (Epoch: 2025-12-13T15:34:16.071Z)
Latitude
0.38654°
Longitude
85.92821°
Altitude
35,468.038 km
Speed
3.093 km/s
True Right ascension
02h 48m 16s
True Declination
0° 23' 10"
Sunlit
Object was in daylight at epoch
Visualization orbit readout
Latitude
Unknown
Longitude
Unknown
Altitude
Unknown
Speed
Unknown
Apparent Right ascension
Unknown
Apparent Declination
Unknown
Sunlit
N/A
Visualization observer readout
Local Sidereal Time
06:49:26
Azimuth
Unknown
Elevation
Unknown
Doppler factor
Unknown
Orbital elements
Apogee altitude
36,213.679 km
Perigee altitude
35,076.339 km
Semi-major axis
42,023.146 km
Eccentricity
0.01353
Inclination
1.4387°
RAAN
27.2219°
Arg. of periapsis
302.2699°
True anomaly
72.59255°
Mean anomaly
71.1174°
Eccentric anomaly
71.85418°
Mean motion
0.25195 °/min
Orbital period
1,428.87 mins
BSTAR
0
Loading maneuver chart data...
Computing Atmospheric mass density...

Documentation

Showing up to 5 results
|